View from above orbital plane
|
View from above satellite
|
Ground track
|
The orbit data is extracted from the following two-line orbital elements,
1 82U 61004B 21108.52386643 -.00000100 00000-0 -34146-4 0 9995
2 82 38.8535 148.7458 1175546 115.9625 256.6834 12.26040048845254
Epoch (UTC): | 18 April 2021 12:34:22 |
Eccentricity: | 0.1175546 |
inclination: | 38.8535° |
perigee height: | 632 km |
apogee height: | 2500 km |
right ascension of ascending node: | 148.7458° |
argument of perigee: | 115.9625° |
revolutions per day: | 12.26040048 |
mean anomaly at epoch: | 256.6834° |
orbit number at epoch: | 84525 |
The dashed part of the orbit path shows where the satellite is in the earth's shadow,
|
|